STARLINK-36040

Last updated on Wed Dec 31 2025 00:02:06 GMT+0000 (Coordinated Universal Time)

1 66614U 25270AC 25364.59442010 .00069021 00000+0 16453-2 0 9992 2 66614 43.0020 89.4176 0001890 272.8482 87.2159 15.40687652 6945
UTC large
Height (km)
Speed (km/s)
/
Latitude / Longitude
Inclination (degrees)
Orbital Period (minutes)
Azimuth
Elevation
Range (km)
Doppler Factor

Next 0 passes for location: London (51.5072 / 0.1276)

Sorry there are no passes over London.